TimeEDT,TemperatureF,Dew PointF,Humidity,Sea Level PressureIn,VisibilityMPH,Wind Direction,Wind SpeedMPH,Gust SpeedMPH,PrecipitationIn,Events,Conditions,WindDirDegrees,DateUTC
12:14 AM,61.9,59.9,93,29.71,10.0,SSW,3.5,-,N/A,,Clear,200,2013-05-22 04:14:00
12:35 AM,61.5,59.5,93,29.72,10.0,SW,3.5,-,N/A,,Clear,220,2013-05-22 04:35:00
12:55 AM,62.2,60.1,93,29.72,10.0,SW,4.6,-,N/A,,Clear,220,2013-05-22 04:55:00
1:14 AM,62.8,60.3,91,29.72,10.0,SSW,4.6,-,N/A,,Clear,200,2013-05-22 05:14:00
1:35 AM,63.0,59.7,89,29.72,10.0,Calm,Calm,-,N/A,,Clear,0,2013-05-22 05:35:00
1:55 AM,62.1,59.2,90,29.72,10.0,Calm,Calm,-,N/A,,Clear,0,2013-05-22 05:55:00
2:14 AM,60.4,58.5,93,29.71,7.0,Calm,Calm,-,N/A,,Clear,0,2013-05-22 06:14:00
2:35 AM,61.0,59.2,94,29.71,7.0,Calm,Calm,-,N/A,,Clear,0,2013-05-22 06:35:00
2:55 AM,61.2,59.4,94,29.71,7.0,Calm,Calm,-,N/A,,Clear,0,2013-05-22 06:55:00
3:14 AM,61.0,59.0,93,29.71,7.0,Calm,Calm,-,N/A,,Clear,0,2013-05-22 07:14:00
3:35 AM,60.8,59.2,94,29.69,5.0,Calm,Calm,-,N/A,,Clear,0,2013-05-22 07:35:00
3:55 AM,61.3,59.9,95,29.69,7.0,Calm,Calm,-,N/A,,Clear,0,2013-05-22 07:55:00
4:14 AM,60.8,59.2,94,29.69,5.0,SW,3.5,-,N/A,,Clear,230,2013-05-22 08:14:00
4:35 AM,61.5,59.9,94,29.70,7.0,Calm,Calm,-,N/A,,Scattered Clouds,0,2013-05-22 08:35:00
4:55 AM,61.2,59.7,95,29.70,4.0,Calm,Calm,-,N/A,Rain,Light Rain,0,2013-05-22 08:55:00
5:15 AM,61.9,60.4,95,29.70,5.0,SSE,4.6,-,0.01,Rain,Light Rain,160,2013-05-22 09:15:00
5:35 AM,62.6,61.0,94,29.73,5.0,SSW,9.2,-,0.06,Rain,Heavy Rain,210,2013-05-22 09:35:00
5:55 AM,62.1,60.4,94,29.72,5.0,WNW,5.8,-,0.18,Rain,Rain,290,2013-05-22 09:55:00
6:14 AM,61.7,60.3,95,29.73,3.0,SW,3.5,-,0.07,Rain,Heavy Rain,230,2013-05-22 10:14:00
6:35 AM,61.7,60.3,95,29.71,2.0,South,6.9,-,0.16,Rain,Rain,180,2013-05-22 10:35:00
6:55 AM,61.3,60.1,96,29.71,2.5,SSE,5.8,-,0.17,Rain,Rain,150,2013-05-22 10:55:00
7:15 AM,61.3,60.3,96,29.69,2.5,ESE,5.8,-,N/A,Rain,Light Rain,110,2013-05-22 11:15:00
7:35 AM,61.7,60.3,95,29.70,4.0,South,4.6,-,N/A,,Overcast,170,2013-05-22 11:35:00
7:55 AM,61.7,60.4,96,29.69,5.0,Calm,Calm,-,N/A,Rain,Light Rain,0,2013-05-22 11:55:00
8:15 AM,61.9,60.8,96,29.70,5.0,Calm,Calm,-,N/A,Rain,Light Rain,0,2013-05-22 12:15:00
8:35 AM,62.6,61.0,94,29.69,7.0,NNW,4.6,-,N/A,,Overcast,330,2013-05-22 12:35:00
8:55 AM,63.1,61.5,94,29.69,10.0,Calm,Calm,-,N/A,,Overcast,0,2013-05-22 12:55:00
9:15 AM,63.3,61.0,92,29.69,10.0,Calm,Calm,-,N/A,,Overcast,0,2013-05-22 13:15:00
9:35 AM,63.1,61.2,93,29.68,10.0,Calm,Calm,-,N/A,Rain,Light Rain,0,2013-05-22 13:35:00
9:54 AM,63.5,61.7,94,29.68,7.0,Calm,Calm,-,N/A,Rain,Light Rain,0,2013-05-22 13:54:00
10:15 AM,63.5,61.5,93,29.68,7.0,Calm,Calm,-,0.01,Rain,Light Rain,0,2013-05-22 14:15:00
10:35 AM,63.5,61.9,94,29.68,7.0,Calm,Calm,-,0.01,Rain,Light Rain,0,2013-05-22 14:35:00
10:54 AM,63.9,62.2,94,29.67,10.0,SE,4.6,-,0.02,Rain,Light Rain,130,2013-05-22 14:54:00
11:15 AM,64.2,62.4,94,29.67,10.0,Calm,Calm,-,N/A,Rain,Light Rain,0,2013-05-22 15:15:00
11:35 AM,64.4,62.6,94,29.66,7.0,East,4.6,-,0.02,Rain,Rain,80,2013-05-22 15:35:00
11:55 AM,64.6,63.0,94,29.66,7.0,Calm,Calm,-,0.03,Rain,Light Rain,0,2013-05-22 15:55:00
12:15 PM,64.8,63.1,94,29.65,10.0,Calm,Calm,-,0.01,Rain,Light Rain,0,2013-05-22 16:15:00
12:35 PM,64.9,63.1,94,29.65,7.0,NE,3.5,-,0.02,Rain,Rain,50,2013-05-22 16:35:00
12:55 PM,64.6,62.8,94,29.65,2.5,ENE,4.6,-,0.09,Rain,Heavy Rain,70,2013-05-22 16:55:00
1:15 PM,64.4,62.6,94,29.65,2.0,NE,3.5,-,0.12,Rain,Heavy Rain,50,2013-05-22 17:15:00
1:35 PM,64.0,62.6,95,29.64,2.0,North,4.6,-,0.32,Rain,Heavy Rain,350,2013-05-22 17:35:00
1:55 PM,63.1,61.7,95,29.64,1.8,NE,3.5,-,0.54,Rain,Heavy Rain,50,2013-05-22 17:55:00
2:15 PM,62.6,61.2,95,29.63,2.0,NNE,4.6,-,0.16,Rain,Heavy Rain,30,2013-05-22 18:15:00
2:35 PM,62.6,61.2,95,29.63,4.0,North,5.8,-,0.23,Rain,Heavy Rain,10,2013-05-22 18:35:00
2:55 PM,62.8,61.3,95,29.63,1.5,North,4.6,-,0.49,Rain,Heavy Rain,360,2013-05-22 18:55:00
3:15 PM,63.0,61.7,96,29.62,7.0,NW,4.6,-,0.02,Rain,Light Rain,310,2013-05-22 19:15:00
3:35 PM,63.1,61.5,94,29.62,10.0,ENE,4.6,-,0.02,Rain,Light Rain,70,2013-05-22 19:35:00
3:55 PM,63.5,61.7,94,29.62,5.0,Calm,Calm,-,0.04,Rain,Light Rain,0,2013-05-22 19:55:00
4:14 PM,63.3,61.3,93,29.62,10.0,NE,5.8,-,0.01,,Light Drizzle,50,2013-05-22 20:14:00
4:35 PM,63.5,61.7,94,29.62,5.0,SE,4.6,-,0.02,Rain,Rain,130,2013-05-22 20:35:00
4:55 PM,63.5,61.7,94,29.62,10.0,SSW,3.5,-,0.03,Rain,Light Rain,210,2013-05-22 20:55:00
5:15 PM,63.1,61.0,93,29.62,2.5,West,6.9,18.4,0.09,Rain,Heavy Rain,280,2013-05-22 21:15:00
5:35 PM,63.5,61.5,93,29.62,7.0,NW,5.8,-,0.11,Rain,Light Rain,320,2013-05-22 21:35:00
5:55 PM,63.5,60.4,90,29.62,10.0,WNW,8.1,-,0.11,,Overcast,300,2013-05-22 21:55:00
6:15 PM,63.9,61.2,91,29.62,10.0,NNW,5.8,18.4,N/A,,Overcast,330,2013-05-22 22:15:00
6:35 PM,64.0,61.5,91,29.63,10.0,NNW,6.9,-,N/A,,Overcast,330,2013-05-22 22:35:00
6:55 PM,63.7,61.3,92,29.64,10.0,WNW,12.7,20.7,N/A,,Overcast,290,2013-05-22 22:55:00
7:15 PM,63.0,60.3,91,29.64,10.0,NW,8.1,21.9,N/A,,Overcast,320,2013-05-22 23:15:00
7:35 PM,62.1,59.9,93,29.65,7.0,NNW,8.1,16.1,N/A,,Overcast,330,2013-05-22 23:35:00
7:55 PM,61.3,59.0,92,29.64,10.0,NNE,15.0,20.7,N/A,,Overcast,20,2013-05-22 23:55:00
8:15 PM,61.2,58.6,91,29.65,10.0,Calm,Calm,-,N/A,,Overcast,0,2013-05-23 00:15:00
8:35 PM,61.7,59.0,91,29.67,10.0,NNW,8.1,-,N/A,,Overcast,330,2013-05-23 00:35:00
8:55 PM,61.2,58.8,92,29.67,10.0,Calm,Calm,-,N/A,,Mostly Cloudy,0,2013-05-23 00:55:00
9:15 PM,61.2,58.5,91,29.66,10.0,Calm,Calm,-,N/A,,Overcast,0,2013-05-23 01:15:00
9:35 PM,60.8,58.1,91,29.67,10.0,Calm,Calm,-,N/A,,Mostly Cloudy,0,2013-05-23 01:35:00
9:55 PM,59.7,57.9,94,29.67,10.0,Calm,Calm,-,N/A,,Mostly Cloudy,0,2013-05-23 01:55:00
10:15 PM,59.2,57.0,93,29.68,10.0,West,4.6,-,N/A,,Mostly Cloudy,280,2013-05-23 02:15:00
10:35 PM,59.2,57.7,95,29.69,10.0,West,3.5,-,N/A,,Mostly Cloudy,270,2013-05-23 02:35:00
10:54 PM,59.9,58.1,94,29.70,10.0,WNW,3.5,-,N/A,,Overcast,300,2013-05-23 02:54:00
11:15 PM,59.9,58.1,94,29.70,10.0,WNW,3.5,-,N/A,,Overcast,300,2013-05-23 03:15:00
11:35 PM,59.7,58.3,95,29.70,10.0,Calm,Calm,-,N/A,,Overcast,0,2013-05-23 03:35:00
11:55 PM,59.4,58.1,96,29.70,10.0,Calm,Calm,-,N/A,,Overcast,0,2013-05-23 03:55:00